This demonstration page uses our WeatherBlox Daily Observations layout. Learn more.

Left ArrowRight Arrow

44.89941, -97.11507

Hourly Observations for April 30, 2019

Temp ( °F °C ) Dew Point ( °F °C ) Humidity (%) Winds ( mph kmh ) Pressure ( in mb ) Visibility ( mi km ) Precip ( " mm )
12:53 am 00:53 Cloudy 38 3.3 33 0.6 83 83 N 9 15 30.22 1024 10 16 0.00 0.00
1:53 am 01:53 Cloudy 38 3.3 34 1.1 86 86 N 12 19 30.23 1024 10 16 0.00 0.00
2:06 am 02:06 Cloudy 37 2.8 34 1.1 89 89 N 10 17 30.25 1024 10 16 0.00 0.00
2:15 am 02:15 Cloudy 37 2.8 34 1.1 89 89 N 8 13 30.25 1024 10 16 0.00 0.00
2:43 am 02:43 Cloudy 37 2.8 34 1.1 89 89 N 7 11 30.25 1024 10 16 0.00 0.00
2:50 am 02:50 Cloudy 37 3 34 1 87 87 NNE 7 11 30.25 1024 10 16 0.00 0.00
2:53 am 02:53 Cloudy 37 2.8 34 1.1 89 89 NNE 8 13 30.22 1024 10 16 0.00 0.00
3:12 am 03:12 Cloudy 37 2.8 33 0.6 86 86 NNE 9 15 30.25 1024 10 16 0.00 0.00
3:53 am 03:53 Cloudy 37 2.8 33 0.6 86 86 NNE 12 19 30.22 1023 10 16 0.00 0.00
4:18 am 04:18 Cloudy 37 2.8 33 0.6 86 86 NE 12 19 30.24 1024 10 16 0.00 0.00
4:53 am 04:53 Cloudy 37 2.8 33 0.6 86 86 NNE 12 19 30.21 1023 10 16 0.00 0.00
5:53 am 05:53 Cloudy 36 2.2 34 1.1 93 93 NNE 10 17 30.22 1023 10 16 0.00 0.00
6:10 am 06:10 Cloudy 36 2.2 34 1.1 93 93 NNE 12 19 30.23 1024 10 16 0.00 0.00
6:53 am 06:53 Cloudy 36 2.2 35 1.7 97 97 NE 10 17 30.20 1023 7 11 0.00 0.00
7:53 am 07:53 Cloudy 38 3.3 36 2.2 93 93 ENE 9 15 30.21 1023 10 16 0.00 0.00
8:39 am 08:39 Cloudy with Light Rain 38 3.3 36 2.2 93 93 E 8 13 30.24 1024 7 11 0.00 0.03
8:53 am 08:53 Cloudy with Light Rain 38 3.3 36 2.2 93 93 E 9 15 30.22 1023 7 11 0.00 0.03
9:07 am 09:07 Cloudy with Light Rain 38 3.3 36 2.2 93 93 E 8 13 30.24 1024 6 10 0.01 0.25
9:53 am 09:53 Cloudy with Light Rain 38 3.3 35 1.7 89 89 E 9 15 30.19 1022 6 10 0.05 1.27
10:53 am 10:53 Cloudy with Light Rain 38 3.3 35 1.7 89 89 ENE 12 19 30.19 1022 10 16 0.01 0.25
11:16 am 11:16 Cloudy with Light Rain 38 3.3 35 1.7 89 89 E 9 15 30.20 1023 8 13 0.01 0.25
11:53 am 11:53 Cloudy with Light Rain 38 3.3 35 1.7 89 89 ENE 13 20 30.18 1022 10 16 0.02 0.51
12:30 pm 12:30 Cloudy 39 3.9 36 2.2 89 89 ENE 9 15 30.19 1022 10 16 0.00 0.03
12:53 pm 12:53 Cloudy 38 3.3 35 1.7 89 89 ENE 13 20 30.17 1022 10 16 0.00 0.03
1:28 pm 13:28 Cloudy with Light Rain 38 3.3 35 1.7 89 89 ENE 10 17 30.17 1022 10 16 0.00 0.03
1:53 pm 13:53 Cloudy 38 3.3 35 1.7 89 89 ENE 14 22 30.15 1021 10 16 0.00 0.03
2:43 pm 14:43 Cloudy with Light Rain 38 3.3 35 1.7 89 89 E 15 24 30.16 1021 2 3 0.01 0.25
2:53 pm 14:53 Cloudy with Mist and Fog 38 3.3 35 1.7 89 89 ENE 13 20 30.14 1021 3 5 0.01 0.25
3:08 pm 15:08 Cloudy with Mist and Fog 38 3.3 35 1.7 89 89 ENE 17 28 30.15 1021 3 4 0.00 0.00
3:31 pm 15:31 Cloudy with Mist and Fog 38 3.3 35 1.7 89 89 ENE 14 22 30.15 1021 3 5 0.00 0.00
3:53 pm 15:53 Cloudy with Mist and Fog 38 3.3 35 1.7 89 89 E 10 17 30.14 1021 3 5 0.00 0.00
4:20 pm 16:20 Cloudy with Mist and Fog 38 3.3 35 1.7 89 89 ENE 15 24 30.13 1020 3 4 0.00 0.00
4:32 pm 16:32 Cloudy with Mist and Fog 38 3.3 36 2.2 93 93 E 13 20 30.13 1020 3 5 0.00 0.00
4:53 pm 16:53 Cloudy 38 3.3 35 1.7 89 89 E 12 19 30.11 1020 7 11 0.00 0.00
5:53 pm 17:53 Cloudy 37 2.8 35 1.7 93 93 E 12 19 30.12 1020 10 16 0.00 0.00
6:53 pm 18:53 Cloudy 37 2.8 35 1.7 93 93 ENE 9 15 30.11 1020 10 16 0.00 0.00
7:53 pm 19:53 Cloudy 37 2.8 36 2.2 96 96 ENE 9 15 30.09 1019 10 16 0.00 0.00
8:03 pm 20:03 Cloudy 37 2.8 36 2.2 96 96 ENE 9 15 30.11 1020 10 16 0.00 0.00
8:53 pm 20:53 Cloudy 38 3.3 36 2.2 93 93 ENE 6 9 30.10 1019 9 14 0.00 0.00
9:53 pm 21:53 Cloudy with Light Rain 38 3.3 36 2.2 93 93 ENE 6 9 30.10 1019 4 6 0.00 0.03
10:46 pm 22:46 Cloudy with Light Rain 38 3.3 36 2.2 93 93 NE 7 11 30.12 1020 9 14 0.01 0.25
10:53 pm 22:53 Cloudy with Light Rain 38 3.3 36 2.2 93 93 NE 7 11 30.10 1019 10 16 0.02 0.51
11:53 pm 23:53 Cloudy with Light Rain 38 3.3 36 2.2 93 93 NNE 9 15 30.09 1019 10 16 0.02 0.51

Powered by AerisWeather